• In Uzbekistan
  • List of Countries
  • For 7 days
  • Water Temperature
  • Satellite Maps
  • Weather Map
  • Weather Widgets
  • user-avatar
    Login

    Hourly Weather Jaunde

    Today, 15 October, Monday

    Time Temperature Precipitation Wind Pressure Humidity
    00:00 +20°C° 0.2 mm 0 mps 698 mmHg 98%
    01:00 +19°C° 0 mm 0 mps 698 mmHg 99%
    02:00 +19°C° 0.2 mm 0 mps 698 mmHg 99%
    03:00 +19°C° 0.2 mm 0 mps 698 mmHg 99%
    04:00 +19°C° 0.2 mm 0 mps 698 mmHg 99%
    05:00 +19°C° 0.3 mm 0 mps 698 mmHg 98%
    06:00 +20°C° 0.3 mm 0 mps 699 mmHg 98%
    07:00 +20°C° 0.3 mm 0 mps 699 mmHg 98%
    08:00 +21°C° 0.4 mm 0 mps 699 mmHg 92%
    09:00 +23°C° 0.4 mm 0 mps 700 mmHg 87%
    10:00 +24°C° 0.4 mm 0 mps 700 mmHg 82%
    11:00 +25°C° 0.6 mm 0 mps 699 mmHg 78%
    12:00 +26°C° 0.6 mm 0 mps 699 mmHg 74%
    13:00 +27°C° 0.6 mm 0 mps 698 mmHg 71%
    14:00 +26°C° 1.8 mm 0 mps 698 mmHg 75%
    15:00 +25°C° 1.8 mm 0 mps 697 mmHg 80%
    16:00 +24°C° 1.8 mm 0 mps 697 mmHg 84%
    17:00 +23°C° 0.5 mm 0 mps 697 mmHg 87%
    18:00 +22°C° 0.5 mm 0 mps 697 mmHg 90%
    19:00 +21°C° 0.5 mm 0 mps 697 mmHg 94%
    20:00 +20°C° 0.3 mm 0 mps 698 mmHg 94%
    21:00 +22°C° 0.3 mm 1 mps 698 mmHg 95%
    22:00 +22°C° 0.3 mm 1 mps 699 mmHg 96%
    23:00 +20°C° 0.2 mm 0 mps 698 mmHg 97%

    Tomorrow, 16 October, Tuesday

    Time Temperature Precipitation Wind Pressure Humidity
    00:00 +19°C° 0.2 mm 0 mps 698 mmHg 97%
    01:00 +19°C° 0.2 mm 0 mps 698 mmHg 98%
    02:00 +19°C° 0.7 mm 0 mps 698 mmHg 98%
    03:00 +19°C° 0.7 mm 0 mps 698 mmHg 98%
    04:00 +19°C° 0.7 mm 0 mps 697 mmHg 98%
    05:00 +19°C° 0.3 mm 0 mps 698 mmHg 98%
    06:00 +20°C° 0.3 mm 0 mps 698 mmHg 97%
    07:00 +20°C° 0.3 mm 0 mps 699 mmHg 96%
    08:00 +21°C° 0.1 mm 0 mps 699 mmHg 91%
    09:00 +22°C° 0.1 mm 0 mps 700 mmHg 86%
    10:00 +24°C° 0.1 mm 0 mps 701 mmHg 81%
    11:00 +27°C° 0.3 mm 1 mps 700 mmHg 76%
    12:00 +28°C° 0.3 mm 1 mps 699 mmHg 72%
    13:00 +29°C° 0.3 mm 1 mps 699 mmHg 67%
    14:00 +28°C° 0.3 mm 1 mps 698 mmHg 69%
    15:00 +28°C° 0.3 mm 1 mps 698 mmHg 70%
    16:00 +27°C° 0.3 mm 1 mps 697 mmHg 72%
    17:00 +26°C° 1.4 mm 1 mps 697 mmHg 80%
    18:00 +24°C° 1.4 mm 1 mps 698 mmHg 87%
    19:00 +23°C° 1.4 mm 1 mps 698 mmHg 95%
    20:00 +22°C° 0.1 mm 1 mps 698 mmHg 96%
    21:00 +22°C° 0.1 mm 1 mps 699 mmHg 97%
    22:00 +22°C° 0.1 mm 1 mps 699 mmHg 97%
    23:00 +22°C° 0 mm 1 mps 699 mmHg 97%

    Day after tomorrow, 17 October, Wednesday

    Time Temperature Precipitation Wind Pressure Humidity
    00:00 +22°C° 0 mm 1 mps 698 mmHg 97%
    01:00 +22°C° 0 mm 1 mps 698 mmHg 97%
    02:00 +22°C° 0 mm 1 mps 698 mmHg 98%
    03:00 +21°C° 0 mm 1 mps 697 mmHg 98%
    04:00 +21°C° 0 mm 1 mps 697 mmHg 98%
    05:00 +21°C° 0 mm 1 mps 698 mmHg 97%
    06:00 +22°C° 0 mm 1 mps 698 mmHg 97%
    07:00 +22°C° 0 mm 1 mps 698 mmHg 96%
    08:00 +23°C° 0 mm 1 mps 699 mmHg 91%
    09:00 +24°C° 0 mm 1 mps 699 mmHg 87%
    10:00 +25°C° 0 mm 1 mps 700 mmHg 82%
    11:00 +26°C° 0 mm 1 mps 699 mmHg 75%
    12:00 +28°C° 0 mm 1 mps 699 mmHg 69%
    13:00 +29°C° 0 mm 1 mps 698 mmHg 62%
    14:00 +29°C° 0.4 mm 1 mps 697 mmHg 67%
    15:00 +28°C° 0.4 mm 1 mps 697 mmHg 72%
    16:00 +28°C° 0.4 mm 1 mps 696 mmHg 76%
    17:00 +26°C° 1.6 mm 1 mps 697 mmHg 83%
    18:00 +24°C° 1.6 mm 1 mps 697 mmHg 90%
    19:00 +22°C° 1.6 mm 1 mps 697 mmHg 96%
    20:00 +22°C° 1.2 mm 1 mps 698 mmHg 97%
    21:00 +22°C° 1.2 mm 1 mps 698 mmHg 97%
    22:00 +22°C° 1.2 mm 1 mps 699 mmHg 97%
    23:00 +22°C° 0.1 mm 1 mps 698 mmHg 98%

    18 October, Thursday

    Time Temperature Precipitation Wind Pressure Humidity
    00:00 +21°C° 0.1 mm 1 mps 698 mmHg 98%
    01:00 +21°C° 0.1 mm 1 mps 698 mmHg 99%
    02:00 +21°C° 0 mm 1 mps 697 mmHg 99%
    03:00 +21°C° 0 mm 1 mps 697 mmHg 99%
    04:00 +21°C° 0 mm 1 mps 696 mmHg 99%
    05:00 +21°C° 0 mm 1 mps 697 mmHg 98%
    06:00 +21°C° 0 mm 1 mps 697 mmHg 98%
    07:00 +21°C° 0 mm 1 mps 698 mmHg 97%
    08:00 +23°C° 0 mm 1 mps 698 mmHg 91%
    09:00 +24°C° 0 mm 1 mps 698 mmHg 84%
    10:00 +26°C° 0 mm 1 mps 699 mmHg 77%
    11:00 +27°C° 0 mm 1 mps 698 mmHg 71%
    12:00 +29°C° 0 mm 1 mps 698 mmHg 65%
    13:00 +30°C° 0 mm 1 mps 697 mmHg 59%
    14:00 +29°C° 0.8 mm 1 mps 696 mmHg 67%
    15:00 +28°C° 0.8 mm 1 mps 696 mmHg 75%
    16:00 +27°C° 0.8 mm 1 mps 695 mmHg 83%
    17:00 +26°C° 0.3 mm 1 mps 696 mmHg 87%
    18:00 +24°C° 0.3 mm 1 mps 696 mmHg 91%
    19:00 +23°C° 0.3 mm 1 mps 697 mmHg 95%
    20:00 +23°C° 0.8 mm 1 mps 697 mmHg 96%
    21:00 +22°C° 0.8 mm 1 mps 697 mmHg 97%
    22:00 +22°C° 0.8 mm 1 mps 698 mmHg 98%
    23:00 +22°C° 0.5 mm 1 mps 698 mmHg 98%

    19 October, Friday

    Time Temperature Precipitation Wind Pressure Humidity
    00:00 +21°C° 0.5 mm 1 mps 697 mmHg 98%
    01:00 +21°C° 0.5 mm 1 mps 697 mmHg 98%
    02:00 +19°C° 0.2 mm 0 mps 697 mmHg 98%
    03:00 +19°C° 0.2 mm 0 mps 696 mmHg 98%
    04:00 +19°C° 0.2 mm 0 mps 696 mmHg 98%
    05:00 +19°C° 0.1 mm 0 mps 697 mmHg 98%
    06:00 +19°C° 0.1 mm 0 mps 697 mmHg 98%
    07:00 +19°C° 0.1 mm 0 mps 697 mmHg 97%
    08:00 +21°C° 0.1 mm 0 mps 698 mmHg 92%
    09:00 +24°C° 0.1 mm 1 mps 698 mmHg 87%
    10:00 +25°C° 0.1 mm 1 mps 699 mmHg 82%
    11:00 +26°C° 0.1 mm 1 mps 698 mmHg 79%
    12:00 +27°C° 0.1 mm 1 mps 697 mmHg 76%
    13:00 +27°C° 0.1 mm 1 mps 697 mmHg 73%
    14:00 +25°C° 0 mm 0 mps 696 mmHg 71%
    15:00 +26°C° 0 mm 0 mps 696 mmHg 69%
    16:00 +26°C° 0 mm 0 mps 696 mmHg 68%
    17:00 +24°C° 0.2 mm 0 mps 696 mmHg 76%
    18:00 +23°C° 0.2 mm 0 mps 696 mmHg 84%
    19:00 +21°C° 0.2 mm 0 mps 696 mmHg 92%
    20:00 +21°C° 0.3 mm 0 mps 697 mmHg 93%
    21:00 +20°C° 0.3 mm 0 mps 697 mmHg 95%
    22:00 +20°C° 0.3 mm 0 mps 697 mmHg 96%
    23:00 +20°C° 0.1 mm 0 mps 697 mmHg 97%

    20 October, Saturday

    Time Temperature Precipitation Wind Pressure Humidity
    00:00 +19°C° 0.1 mm 0 mps 696 mmHg 97%
    01:00 +19°C° 0.1 mm 0 mps 696 mmHg 98%
    02:00 +19°C° 0.1 mm 0 mps 696 mmHg 98%
    03:00 +19°C° 0.1 mm 0 mps 696 mmHg 98%
    04:00 +19°C° 0.1 mm 0 mps 696 mmHg 98%
    05:00 +19°C° 0 mm 0 mps 696 mmHg 96%
    06:00 +20°C° 0 mm 0 mps 697 mmHg 95%
    07:00 +20°C° 0 mm 0 mps 697 mmHg 94%
    08:00 +22°C° 0 mm 0 mps 698 mmHg 83%
    09:00 +25°C° 0 mm 0 mps 698 mmHg 71%
    10:00 +30°C° 0 mm 1 mps 698 mmHg 60%
    11:00 +31°C° 0 mm 1 mps 698 mmHg 54%
    12:00 +32°C° 0 mm 1 mps 697 mmHg 49%
    13:00 +34°C° 0 mm 2 mps 696 mmHg 43%
    14:00 +32°C° 0 mm 1 mps 696 mmHg 44%
    15:00 +32°C° 0 mm 1 mps 695 mmHg 46%
    16:00 +32°C° 0 mm 1 mps 695 mmHg 47%
    17:00 +30°C° 0 mm 1 mps 695 mmHg 54%
    18:00 +26°C° 0 mm 0 mps 695 mmHg 62%
    19:00 +24°C° 0 mm 0 mps 695 mmHg 69%
    20:00 +23°C° 0.1 mm 0 mps 696 mmHg 73%
    21:00 +22°C° 0.1 mm 0 mps 696 mmHg 78%
    22:00 +21°C° 0.1 mm 0 mps 696 mmHg 82%
    23:00 +21°C° 0.3 mm 0 mps 696 mmHg 85%
    Show more